When you browse on this site, cookies collect data to enhance your experience and personalize the content and advertising you see.
Visit our Privacy Policy to learn more. By continuing to use the site, you agree to this use of cookies and data.

Hourly Weather Hanoi

Today, 22 September, Tuesday

Time Temperature Precipitation Wind Pressure Humidity
00:00 +27°C° 0 mm 2 mps 755 mmHg 92%
01:00 +27°C° 0 mm 1 mps 755 mmHg 95%
02:00 +27°C° 0 mm 1 mps 755 mmHg 95%
03:00 +27°C° 0 mm 1 mps 755 mmHg 94%
04:00 +28°C° 0 mm 1 mps 755 mmHg 93%
05:00 +28°C° 0.1 mm 1 mps 755 mmHg 93%
06:00 +28°C° 0.1 mm 1 mps 755 mmHg 93%
07:00 +28°C° 0 mm 1 mps 755 mmHg 97%
08:00 +28°C° 1.5 mm 2 mps 755 mmHg 94%
09:00 +29°C° 1.5 mm 2 mps 755 mmHg 91%
10:00 +30°C° 1.5 mm 2 mps 755 mmHg 88%
11:00 +30°C° 2.2 mm 3 mps 755 mmHg 85%
12:00 +31°C° 2.2 mm 3 mps 754 mmHg 81%
13:00 +31°C° 0 mm 3 mps 754 mmHg 79%
14:00 +33°C° 0.9 mm 3 mps 754 mmHg 79%
15:00 +33°C° 0.9 mm 3 mps 753 mmHg 79%
16:00 +33°C° 0.9 mm 3 mps 753 mmHg 79%
17:00 +31°C° 0.7 mm 3 mps 753 mmHg 82%
18:00 +30°C° 0.7 mm 3 mps 753 mmHg 86%
19:00 +29°C° 0.7 mm 3 mps 753 mmHg 90%
20:00 +28°C° 0.9 mm 3 mps 754 mmHg 91%
21:00 +28°C° 0.9 mm 2 mps 755 mmHg 92%
22:00 +28°C° 0.9 mm 2 mps 755 mmHg 93%
23:00 +28°C° 1.2 mm 2 mps 755 mmHg 93%

Tomorrow, 23 September, Wednesday

Time Temperature Precipitation Wind Pressure Humidity
00:00 +28°C° 1.2 mm 1 mps 755 mmHg 93%
01:00 +28°C° 1.2 mm 1 mps 754 mmHg 94%
02:00 +28°C° 0.7 mm 1 mps 754 mmHg 94%
03:00 +28°C° 0.7 mm 1 mps 754 mmHg 93%
04:00 +27°C° 0.7 mm 1 mps 754 mmHg 93%
05:00 +28°C° 0.3 mm 1 mps 755 mmHg 92%
06:00 +28°C° 0.3 mm 1 mps 755 mmHg 91%
07:00 +29°C° 0.3 mm 1 mps 755 mmHg 89%
08:00 +30°C° 1.7 mm 2 mps 755 mmHg 84%
09:00 +31°C° 1.7 mm 3 mps 756 mmHg 78%
10:00 +34°C° 1.7 mm 4 mps 756 mmHg 72%
11:00 +34°C° 1.5 mm 4 mps 755 mmHg 72%
12:00 +34°C° 1.5 mm 4 mps 755 mmHg 72%
13:00 +34°C° 1.5 mm 4 mps 754 mmHg 71%
14:00 +34°C° 1.8 mm 4 mps 754 mmHg 74%
15:00 +33°C° 1.8 mm 4 mps 754 mmHg 76%
16:00 +33°C° 1.8 mm 4 mps 754 mmHg 79%
17:00 +31°C° 3.1 mm 3 mps 754 mmHg 82%
18:00 +30°C° 3.1 mm 3 mps 754 mmHg 85%
19:00 +29°C° 3.1 mm 3 mps 755 mmHg 89%
20:00 +29°C° 2.5 mm 3 mps 756 mmHg 89%
21:00 +29°C° 2.5 mm 3 mps 756 mmHg 90%
22:00 +28°C° 2.5 mm 3 mps 757 mmHg 91%
23:00 +28°C° 1.4 mm 3 mps 757 mmHg 91%

Day after tomorrow, 24 September, Thursday

Time Temperature Precipitation Wind Pressure Humidity
00:00 +27°C° 1.4 mm 3 mps 756 mmHg 92%
01:00 +27°C° 1.4 mm 2 mps 756 mmHg 92%
02:00 +27°C° 0.3 mm 2 mps 756 mmHg 92%
03:00 +26°C° 0.3 mm 2 mps 756 mmHg 92%
04:00 +26°C° 0.3 mm 2 mps 756 mmHg 92%
05:00 +26°C° 0 mm 2 mps 756 mmHg 92%
06:00 +26°C° 0 mm 2 mps 756 mmHg 91%
07:00 +26°C° 0 mm 2 mps 757 mmHg 90%
08:00 +28°C° 0.1 mm 2 mps 757 mmHg 85%
09:00 +29°C° 0.1 mm 2 mps 757 mmHg 80%
10:00 +31°C° 0.1 mm 2 mps 757 mmHg 76%
11:00 +32°C° 0.7 mm 2 mps 757 mmHg 73%
12:00 +32°C° 0.7 mm 2 mps 756 mmHg 71%
13:00 +34°C° 0.7 mm 2 mps 755 mmHg 69%
14:00 +32°C° 1.4 mm 2 mps 755 mmHg 72%
15:00 +33°C° 1.4 mm 3 mps 754 mmHg 74%
16:00 +33°C° 1.4 mm 3 mps 754 mmHg 77%
17:00 +31°C° 1.5 mm 3 mps 754 mmHg 81%
18:00 +30°C° 1.5 mm 3 mps 755 mmHg 85%
19:00 +28°C° 1.5 mm 3 mps 755 mmHg 89%
20:00 +28°C° 0.7 mm 2 mps 756 mmHg 90%
21:00 +28°C° 0.7 mm 2 mps 756 mmHg 92%
22:00 +28°C° 0.7 mm 2 mps 757 mmHg 93%
23:00 +28°C° 0.7 mm 2 mps 756 mmHg 93%

25 September, Friday

Time Temperature Precipitation Wind Pressure Humidity
00:00 +27°C° 0.7 mm 2 mps 756 mmHg 93%
01:00 +27°C° 0.7 mm 2 mps 755 mmHg 93%
02:00 +27°C° 0.5 mm 2 mps 755 mmHg 94%
03:00 +27°C° 0.5 mm 2 mps 755 mmHg 94%
04:00 +27°C° 0.5 mm 2 mps 754 mmHg 94%
05:00 +27°C° 0.1 mm 2 mps 755 mmHg 93%
06:00 +27°C° 0.1 mm 2 mps 755 mmHg 93%
07:00 +28°C° 0.1 mm 2 mps 755 mmHg 92%
08:00 +28°C° 0.5 mm 2 mps 755 mmHg 88%
09:00 +29°C° 0.5 mm 2 mps 755 mmHg 85%
10:00 +30°C° 0.5 mm 2 mps 755 mmHg 81%
11:00 +31°C° 0.5 mm 2 mps 754 mmHg 78%
12:00 +33°C° 0.5 mm 3 mps 754 mmHg 74%
13:00 +34°C° 0.5 mm 3 mps 753 mmHg 71%
14:00 +34°C° 0.4 mm 4 mps 752 mmHg 72%
15:00 +33°C° 0.4 mm 4 mps 752 mmHg 74%
16:00 +33°C° 0.4 mm 4 mps 751 mmHg 75%
17:00 +32°C° 0.1 mm 4 mps 752 mmHg 79%
18:00 +30°C° 0 mm 4 mps 752 mmHg 83%
19:00 +29°C° 0 mm 3 mps 753 mmHg 86%
20:00 +29°C° 0 mm 3 mps 753 mmHg 88%
21:00 +28°C° 0 mm 3 mps 754 mmHg 89%
22:00 +28°C° 0 mm 3 mps 755 mmHg 91%
23:00 +28°C° 0.3 mm 3 mps 754 mmHg 91%

26 September, Saturday

Time Temperature Precipitation Wind Pressure Humidity
00:00 +28°C° 0.3 mm 2 mps 754 mmHg 92%
01:00 +28°C° 0.3 mm 2 mps 754 mmHg 92%
02:00 +28°C° 0.5 mm 2 mps 753 mmHg 93%
03:00 +27°C° 0.5 mm 2 mps 753 mmHg 93%
04:00 +27°C° 0.5 mm 2 mps 753 mmHg 93%
05:00 +28°C° 0.1 mm 2 mps 753 mmHg 92%
06:00 +28°C° 0.1 mm 2 mps 753 mmHg 91%
07:00 +28°C° 0.1 mm 2 mps 754 mmHg 90%
08:00 +30°C° 0.6 mm 3 mps 754 mmHg 84%
09:00 +31°C° 0.6 mm 3 mps 754 mmHg 77%
10:00 +34°C° 0.6 mm 4 mps 754 mmHg 71%
11:00 +34°C° 0.2 mm 4 mps 753 mmHg 70%
12:00 +35°C° 0.2 mm 5 mps 752 mmHg 69%
13:00 +35°C° 0.2 mm 5 mps 751 mmHg 68%
14:00 +34°C° 0.1 mm 5 mps 751 mmHg 71%
15:00 +34°C° 0.1 mm 5 mps 751 mmHg 74%
16:00 +33°C° 0.1 mm 5 mps 751 mmHg 77%
17:00 +32°C° 0.2 mm 5 mps 751 mmHg 80%
18:00 +30°C° 0.2 mm 4 mps 752 mmHg 84%
19:00 +29°C° 0.2 mm 4 mps 752 mmHg 87%
20:00 +29°C° 0.6 mm 4 mps 753 mmHg 89%
21:00 +29°C° 0.6 mm 3 mps 754 mmHg 90%
22:00 +29°C° 0.6 mm 3 mps 754 mmHg 92%
23:00 +28°C° 1.8 mm 3 mps 754 mmHg 91%

27 September, Sunday

Time Temperature Precipitation Wind Pressure Humidity
00:00 +28°C° 1.8 mm 3 mps 754 mmHg 91%
01:00 +28°C° 1.8 mm 3 mps 754 mmHg 90%
02:00 +28°C° 0.5 mm 3 mps 753 mmHg 91%
03:00 +28°C° 0.5 mm 3 mps 753 mmHg 92%
04:00 +27°C° 0.5 mm 2 mps 753 mmHg 92%
05:00 +28°C° 0.1 mm 2 mps 754 mmHg 92%
06:00 +28°C° 0.1 mm 3 mps 754 mmHg 91%
07:00 +28°C° 0.1 mm 3 mps 755 mmHg 90%
08:00 +29°C° 0.8 mm 3 mps 755 mmHg 85%
09:00 +31°C° 0.8 mm 3 mps 755 mmHg 79%
10:00 +33°C° 0.8 mm 4 mps 756 mmHg 73%
11:00 +33°C° 0.8 mm 4 mps 755 mmHg 72%
12:00 +34°C° 0.8 mm 4 mps 755 mmHg 71%
13:00 +34°C° 0.8 mm 4 mps 754 mmHg 69%
14:00 +34°C° 0.6 mm 4 mps 754 mmHg 70%
15:00 +33°C° 0.6 mm 4 mps 753 mmHg 72%
16:00 +33°C° 0.6 mm 4 mps 753 mmHg 73%
17:00 +31°C° 0.8 mm 3 mps 754 mmHg 78%
18:00 +30°C° 0.8 mm 3 mps 754 mmHg 83%
19:00 +29°C° 0.8 mm 3 mps 755 mmHg 88%
20:00 +29°C° 1.4 mm 3 mps 755 mmHg 89%
21:00 +28°C° 1.4 mm 2 mps 756 mmHg 90%
22:00 +28°C° 1.4 mm 2 mps 756 mmHg 91%
23:00 +28°C° 0.9 mm 2 mps 756 mmHg 91%
Show more